Weather History for KEKN - March, 2014

Change the Weather History Date:

Saturday, March 8, 2014

  Actual Average Record
Temperature  
Mean Temperature 40 °F 37 °F  
Max Temperature 57 °F 49 °F 77 °F (2000)
Min Temperature 23 °F 26 °F -13 °F (1986)
Degree Days  
Heating Degree Days 25 28  
Month to date heating degree days 284 230  
Since 1 July heating degree days 4807 4551  
Cooling Degree Days 0 0  
Month to date cooling degree days 0 0  
Year to date cooling degree days 0 0  
Moisture  
Dew Point 27 °F    
Average Humidity 62    
Maximum Humidity 92    
Minimum Humidity 32    
Precipitation  
Precipitation 0.00 in 0.13 in 0.73 in (1934)
Month to date precipitation 0.87 0.97  
Year to date precipitation 7.13 7.30  
Snow  
Snow 0.00 in - - ()
Month to date snowfall 2.8  
Since 1 September snowfall 78.7  
Snow Depth 0.00 in    
Sea Level Pressure  
Sea Level Pressure 30.03 in    
Wind  
Wind Speed 6 mph (West)    
Max Wind Speed 20 mph    
Max Gust Speed 26 mph    
Visibility 10 miles    
Events      
T = Trace of Precipitation, MM = Missing Value Source: NWS Daily Summary

Daily Weather History Graph

Daily Weather History Graph

Search for Another Location

Airport or City:

Trip Planner

Search our weather history database for the weather conditions in past years. The results will help you decide how hot, cold, wet, or windy it might be!

Date:

Astronomy

Mar. 08, 2014 Rise Set
Actual Time 6:41 AM EST 6:19 PM EST
Civil Twilight 6:14 AM EST 6:46 PM EST
Nautical Twilight 5:44 AM EST 7:16 PM EST
Astronomical Twilight 5:13 AM EST 7:47 PM EST
Moon 11:24 AM EST (3/8) 1:12 AM EST (3/8)
Length of Visible Light 12h 31m
Length of Day
11h 37m
First Quarter, 51% of the Moon is Illuminated
Mar 8
First Quarter
Mar 16
Full
Mar 23
Last Quarter
Mar 30
New
Apr 7
First Quarter

Hourly Weather History & Observations

Time (EST) Temp. Windchill Dew Point Humidity Pressure Visibility Wind Dir Wind Speed Gust Speed Precip Events Conditions
12:51 AM 27.0 °F - 23.0 °F 85% 30.01 in 10.0 mi Calm Calm - N/A   Clear
1:51 AM 25.0 °F - 21.9 °F 88% 30.02 in 10.0 mi Calm Calm - N/A   Clear
2:51 AM 25.0 °F - 21.9 °F 88% 30.02 in 10.0 mi Calm Calm - N/A   Clear
3:51 AM 24.1 °F - 21.0 °F 88% 30.02 in 10.0 mi Calm Calm - N/A   Clear
4:51 AM 24.1 °F - 21.0 °F 88% 30.04 in 10.0 mi Calm Calm - N/A   Clear
5:51 AM 24.1 °F - 19.9 °F 84% 30.06 in 10.0 mi Calm Calm - N/A   Scattered Clouds
6:51 AM 26.1 °F - 23.0 °F 88% 30.08 in 10.0 mi Calm Calm - N/A   Mostly Cloudy
7:51 AM 28.9 °F - 26.1 °F 89% 30.08 in 10.0 mi Calm Calm - N/A   Clear
8:51 AM 33.1 °F - 28.9 °F 85% 30.08 in 10.0 mi Calm Calm - N/A   Clear
9:51 AM 39.9 °F - 34.0 °F 79% 30.06 in 10.0 mi Calm Calm - N/A   Clear
10:51 AM 52.0 °F - 34.0 °F 50% 30.05 in 10.0 mi WSW 8.1 mph - N/A   Partly Cloudy
11:51 AM 53.1 °F - 33.1 °F 47% 30.05 in 10.0 mi WSW 4.6 mph 24.2 mph N/A   Partly Cloudy
12:51 PM 54.0 °F - 32.0 °F 43% 30.03 in 10.0 mi WNW 15.0 mph 23.0 mph N/A   Partly Cloudy
1:51 PM 55.9 °F - 33.1 °F 42% 30.01 in 10.0 mi WNW 11.5 mph 19.6 mph N/A   Clear
2:51 PM 55.9 °F - 28.9 °F 36% 30.00 in 10.0 mi West 15.0 mph 21.9 mph N/A   Clear
3:51 PM 55.0 °F - 28.0 °F 35% 30.00 in 10.0 mi WSW 16.1 mph 23.0 mph N/A   Clear
4:51 PM 54.0 °F - 28.0 °F 37% 30.00 in 10.0 mi West 17.3 mph 25.3 mph N/A   Clear
5:51 PM 53.1 °F - 25.0 °F 34% 30.01 in 10.0 mi West 13.8 mph 23.0 mph N/A   Partly Cloudy
6:51 PM 52.0 °F - 26.1 °F 37% 30.03 in 10.0 mi West 8.1 mph 17.3 mph N/A   Overcast
7:51 PM 48.9 °F - 26.1 °F 41% 30.03 in 10.0 mi West 5.8 mph - N/A   Partly Cloudy
8:51 PM 46.0 °F 43.9 °F 27.0 °F 47% 30.02 in 10.0 mi SW 4.6 mph - N/A   Partly Cloudy
9:51 PM 44.1 °F 40.8 °F 28.0 °F 53% 30.01 in 10.0 mi SW 5.8 mph - N/A   Mostly Cloudy
10:51 PM 48.0 °F - 27.0 °F 44% 29.99 in 10.0 mi West 6.9 mph - N/A   Overcast
11:51 PM 45.0 °F 41.8 °F 32.0 °F 60% 30.01 in 10.0 mi WNW 5.8 mph - N/A   Overcast